| time (UTC) | temp F | wind direction | speed MPH | gust MPH | rain 1hr in | rain 24hr in | rain mn in | humidity % | barometer mb |
| 20260505090052 | 74 | 169 | 12.0 | 22.0 | 0.00 | 0.00 | 0.00 | 85 | 1010.7 |
| 20260505084555 | 74 | 160 | 13.0 | 20.0 | 0.00 | 0.00 | 0.00 | 85 | 1010.7 |
| 20260505083100 | 75 | 171 | 11.0 | 23.0 | 0.00 | 0.00 | 0.00 | 85 | 1010.9 |
| 20260505081605 | 75 | 205 | 12.0 | 22.0 | 0.00 | 0.00 | 0.00 | 85 | 1011.1 |
| 20260505080053 | 74 | 150 | 11.0 | 18.0 | 0.00 | 0.00 | 0.00 | 85 | 1011.2 |
| 20260505074553 | 74 | 132 | 12.0 | 23.0 | 0.00 | 0.00 | 0.00 | 84 | 1011.2 |
| 20260505073111 | 74 | 195 | 13.0 | 29.0 | 0.00 | 0.00 | 0.00 | 84 | 1011.4 |
| 20260505071602 | 74 | 159 | 11.0 | 22.0 | 0.00 | 0.00 | 0.00 | 84 | 1011.6 |
| 20260505064554 | 74 | 136 | 13.0 | 19.0 | 0.00 | 0.00 | 0.00 | 83 | 1012.1 |
| 20260505063053 | 74 | 153 | 13.0 | 22.0 | 0.00 | 0.00 | 0.00 | 83 | 1012.3 |
| 20260505061555 | 74 | 178 | 13.0 | 21.0 | 0.00 | 0.00 | 0.00 | 82 | 1012.2 |
| 20260505060056 | 74 | 146 | 12.0 | 21.0 | 0.00 | 0.00 | 0.00 | 83 | 1012.4 |
| 20260505054555 | 74 | 175 | 12.0 | 21.0 | 0.00 | 0.00 | 0.00 | 82 | 1012.4 |
| 20260505053057 | 74 | 142 | 12.0 | 20.0 | 0.00 | 0.00 | 0.00 | 82 | 1012.3 |
| 20260505051604 | 74 | 164 | 13.0 | 22.0 | 0.00 | 0.00 | 0.00 | 81 | 1012.6 |
| 20260505050106 | 74 | 186 | 12.0 | 19.0 | 0.00 | 0.00 | 0.00 | 81 | 1012.8 |
| 20260505041602 | 74 | 134 | 13.0 | 22.0 | 0.00 | 0.00 | 0.00 | 80 | 1013.1 |
| 20260505040056 | 74 | 142 | 12.0 | 23.0 | 0.00 | 0.00 | 0.00 | 80 | 1013.3 |
| 20260505034554 | 74 | 138 | 14.0 | 21.0 | 0.00 | 0.00 | 0.00 | 80 | 1013.2 |
| 20260505033053 | 74 | 132 | 14.0 | 21.0 | 0.00 | 0.00 | 0.00 | 79 | 1013.2 |
| 20260505031557 | 74 | 169 | 14.0 | 21.0 | 0.00 | 0.00 | 0.00 | 80 | 1013.3 |
| 20260505030055 | 74 | 159 | 12.0 | 19.0 | 0.00 | 0.00 | 0.00 | 79 | 1013.4 |
| 20260505024601 | 74 | 195 | 13.0 | 23.0 | 0.00 | 0.00 | 0.00 | 78 | 1013.3 |
| 20260505023054 | 74 | 172 | 14.0 | 20.0 | 0.00 | 0.00 | 0.00 | 78 | 1013.3 |
| 20260505021552 | 74 | 190 | 13.0 | 19.0 | 0.00 | 0.00 | 0.00 | 77 | 1013.2 |
| 20260505020055 | 74 | 143 | 12.0 | 19.0 | 0.00 | 0.00 | 0.00 | 78 | 1013.0 |
| 20260505014553 | 74 | 144 | 14.0 | 19.0 | 0.00 | 0.00 | 0.00 | 77 | 1013.0 |
| 20260505013121 | 74 | 185 | 10.0 | 19.0 | 0.00 | 0.00 | 0.00 | 77 | 1013.1 |
| 20260505011613 | 74 | 153 | 9.0 | 18.0 | 0.00 | 0.00 | 0.00 | 76 | 1013.0 |
| 20260505010110 | 74 | 147 | 11.0 | 19.0 | 0.00 | 0.00 | 0.00 | 76 | 1012.9 |
| 20260505004558 | 74 | 162 | 12.0 | 19.0 | 0.00 | 0.00 | 0.00 | 75 | 1012.7 |
| 20260505003056 | 74 | 150 | 12.0 | 17.0 | 0.00 | 0.00 | 0.00 | 75 | 1012.8 |
| 20260505001555 | 75 | 148 | 10.0 | 17.0 | 0.00 | 0.00 | 0.00 | 75 | 1013.0 |
| 20260505000106 | 75 | 213 | 12.0 | 19.0 | 0.00 | 0.00 | 0.00 | 74 | 1013.1 |
| 20260504234552 | 75 | 153 | 10.0 | 15.0 | 0.00 | 0.00 | 0.00 | 74 | 1013.2 |
| 20260504233104 | 76 | 138 | 10.0 | 16.0 | 0.00 | 0.00 | 0.00 | 73 | 1013.3 |
| 20260504231557 | 75 | 163 | 10.0 | 16.0 | 0.00 | 0.00 | 0.00 | 72 | 1013.7 |
| 20260504230100 | 75 | 132 | 9.0 | 15.0 | 0.00 | 0.00 | 0.00 | 72 | 1013.8 |
| 20260504224555 | 76 | 148 | 10.0 | 13.0 | 0.00 | 0.00 | 0.00 | 71 | 1013.8 |
| 20260504223102 | 76 | 153 | 10.0 | 14.0 | 0.00 | 0.00 | 0.00 | 70 | 1014.0 |
| 20260504221555 | 77 | 149 | 9.0 | 13.0 | 0.00 | 0.00 | 0.00 | 70 | 1014.2 |
| 20260504220057 | 77 | 185 | 8.0 | 14.0 | 0.00 | 0.00 | 0.00 | 67 | 1014.3 |
| 20260504214614 | 77 | 182 | 7.0 | 16.0 | 0.00 | 0.00 | 0.00 | 67 | 1014.6 |
| 20260504213106 | 78 | 185 | 7.0 | 13.0 | 0.00 | 0.00 | 0.00 | 66 | 1014.7 |
| 20260504211555 | 78 | 109 | 8.0 | 15.0 | 0.00 | 0.00 | 0.00 | 67 | 1015.0 |
| 20260504204555 | 77 | 151 | 9.0 | 14.0 | 0.00 | 0.00 | 0.00 | 67 | 1015.0 |
| 20260504203103 | 78 | 146 | 8.0 | 12.0 | 0.00 | 0.00 | 0.00 | 66 | 1015.3 |
| 20260504201616 | 77 | 142 | 8.0 | 14.0 | 0.00 | 0.00 | 0.00 | 67 | 1015.4 |
| 20260504200057 | 77 | 154 | 8.0 | 14.0 | 0.00 | 0.00 | 0.00 | 66 | 1015.6 |
| 20260504194555 | 78 | 149 | 7.0 | 15.0 | 0.00 | 0.00 | 0.00 | 66 | 1016.0 |
| 20260504193113 | 78 | 126 | 9.0 | 15.0 | 0.00 | 0.00 | 0.00 | 66 | 1015.8 |
| 20260504191601 | 78 | 143 | 7.0 | 14.0 | 0.00 | 0.00 | 0.00 | 65 | 1016.1 |
| 20260504190115 | 77 | 188 | 9.0 | 15.0 | 0.00 | 0.00 | 0.00 | 66 | 1016.1 |
| 20260504184626 | 78 | 145 | 8.0 | 14.0 | 0.00 | 0.00 | 0.00 | 64 | 1016.2 |
| 20260504183112 | 78 | 151 | 8.0 | 15.0 | 0.00 | 0.00 | 0.00 | 66 | 1016.4 |
| 20260504181557 | 77 | 190 | 7.0 | 15.0 | 0.00 | 0.00 | 0.00 | 66 | 1016.5 |
| 20260504180055 | 77 | 142 | 10.0 | 16.0 | 0.00 | 0.00 | 0.00 | 66 | 1016.6 |
| 20260504174555 | 77 | 158 | 8.0 | 16.0 | 0.00 | 0.00 | 0.00 | 64 | 1016.8 |
| 20260504173056 | 77 | 192 | 8.0 | 14.0 | 0.00 | 0.00 | 0.00 | 65 | 1017.1 |
| 20260504171602 | 77 | 204 | 9.0 | 15.0 | 0.00 | 0.00 | 0.00 | 66 | 1017.1 |
| 20260504160105 | 76 | 169 | 10.0 | 15.0 | 0.00 | 0.00 | 0.00 | 65 | 1017.8 |
| 20260504140107 | 74 | 137 | 10.0 | 14.0 | 0.00 | 0.00 | 0.00 | 68 | 1017.6 |
| 20260504120108 | 71 | 188 | 10.0 | 15.0 | 0.00 | 0.00 | 0.00 | 68 | 1017.4 |
| 20260504110104 | 70 | 126 | 9.0 | 14.0 | 0.00 | 0.00 | 0.00 | 62 | 1017.2 |
| 20260504100105 | 71 | 159 | 7.0 | 15.0 | 0.00 | 0.00 | 0.00 | 58 | 1017.7 |